Location: Jarosław
(50.0191°N, 22.6835°E)
Time: 15:08:09
(UTC+01:00)

ISS - Pass Details

Date: 25 January 2019
Orbit: 403 x 411 km, 51.6° (Epoch: 18 February)

Event Time Altitude Azimuth Distance (km) Brightness Sun altitude
Rises 16:53:39 0° 200° (SSW) 2,321 0.7 -7.0°
Reaches altitude 10° 16:56:20 10° 175° (S) 1,467 -0.8 -7.4°
Maximum altitude 16:58:18 15° 139° (SE) 1,205 -1.6 -7.7°
Drops below altitude 10° 17:00:17 10° 102° (ESE) 1,477 -1.5 -8.0°
Enters shadow 17:00:41 - 97° (E) 1,580 -1.4 -8.1°
